Wind_Speed
11 13 14 14 14 15 14 14 13 15 15 15 17 20 23 27 31 32 34 33 29 29 25 29 32 33 36 38 38 37 35 34 36 37 39 40 41 42 42 41 41 42 43 42
12 12 12 12 11 12 13 18 21 22 21 22 26 27 29 32 34 34 35 32 29 27 27 29 32 39 40 36 36 36 36 34 35 36 37 37 37 38 39 39 40 39 39 40
9 11 8 8 8 12 16 20 24 29 26 26 28 29 32 32 33 35 34 31 28 28 27 29 37 41 36 32 33 33 33 33 35 37 37 36 35 34 34 35 35 35 35 35
8 8 6 8 12 18 21 23 22 25 30 32 32 33 34 35 36 32 30 28 26 28 29 34 37 36 34 35 38 38 38 36 35 36 37 37 37 37 37 36 36 37 37 37
8 9 10 11 13 17 19 19 21 21 23 30 35 39 34 32 29 25 25 25 26 25 29 32 32 31 32 36 38 40 44 44 42 40 39 39 40 40 40 40 39 38 38 39
4 5 7 8 10 11 9 7 10 14 17 21 23 26 22 22 20 22 23 24 28 29 33 34 35 34 31 31 31 32 36 39 41 43 43 42 42 42 42 41 40 40 40 40
4 6 9 9 7 10 9 7 4 6 11 16 16 17 17 18 18 20 24 28 32 33 35 37 33 30 28 29 31 32 34 36 38 41 43 44 44 44 45 44 43 42 41 41
8 7 9 10 9 12 11 9 8 7 9 13 16 18 17 19 23 26 29 30 30 31 30 31 32 33 33 34 35 35 34 33 34 37 39 41 43 44 44 45 46 45 44 43
10 8 13 14 12 12 10 9 8 9 9 9 17 21 19 21 23 25 26 26 25 25 28 32 34 34 34 36 38 38 35 35 35 36 37 39 40 42 43 44 45 45 45 45
10 8 13 15 12 10 8 9 12 11 11 12 14 18 22 22 24 24 25 26 28 29 30 31 31 31 32 34 35 36 35 35 36 37 37 37 38 39 39 40 41 42 41 41
12 8 10 13 12 10 8 9 10 12 14 15 12 10 15 20 24 26 27 28 29 31 32 33 34 34 34 34 37 37 37 39 39 38 37 37 37 36 37 37 37 38 39 39
13 10 7 12 14 15 12 14 16 16 19 23 22 12 18 24 27 30 31 33 35 37 39 39 39 39 37 35 36 37 36 38 40 39 37 38 37 35 33 33 34 34 33 34
14 12 11 13 15 16 17 19 20 21 22 23 23 22 29 29 31 34 36 37 38 41 43 45 44 43 44 42 39 39 39 36 36 37 37 38 37 35 31 30 30 30 30 30
11 13 14 14 16 20 19 20 22 24 25 24 23 26 34 33 34 37 38 40 41 43 47 49 47 46 48 48 45 41 40 39 35 34 35 36 36 35 31 29 29 29 28 24
12 13 16 17 20 23 22 21 24 28 29 29 28 32 37 37 36 38 40 43 47 49 50 51 50 50 49 50 49 46 44 41 38 33 32 33 34 35 31 28 28 26 21 18
18 17 19 17 21 23 22 25 28 30 31 33 36 37 37 40 40 43 47 49 50 49 50 52 53 53 53 52 49 47 48 44 40 37 32 30 33 35 31 27 26 22 18 16
21 23 24 21 22 23 25 27 28 30 31 32 34 37 38 41 45 50 54 58 56 58 62 65 63 58 57 55 52 50 49 44 41 38 35 31 33 35 32 27 25 24 20 14
24 25 27 26 26 26 30 32 32 33 35 36 38 41 44 48 51 52 58 63 65 67 67 71 68 62 57 56 58 55 50 45 41 39 37 31 31 32 32 28 24 24 21 18
31 32 32 32 32 30 31 33 33 36 39 39 42 45 47 50 56 56 62 68 72 74 72 73 72 69 66 64 66 66 61 51 42 40 38 32 32 30 31 28 24 23 22 20
33 32 32 33 35 36 34 36 40 43 43 41 47 50 55 56 58 58 64 68 75 76 73 74 76 73 71 71 70 68 68 60 50 44 40 37 34 31 31 29 26 23 22 21
31 32 34 36 39 40 40 39 39 43 45 49 54 54 62 64 62 68 68 75 82 79 79 80 77 75 77 77 75 74 68 62 54 50 46 41 39 35 30 28 28 26 21 19
36 38 38 39 40 40 39 40 40 47 49 53 59 63 67 68 70 74 77 80 80 79 79 77 72 69 71 74 74 72 66 62 60 54 47 40 38 34 27 28 29 28 21 19
34 35 35 37 39 41 42 44 47 52 55 59 63 68 72 75 77 78 80 81 80 78 77 66 58 59 63 65 62 61 60 62 58 55 52 46 38 35 31 33 31 30 23 18
32 33 35 38 40 42 45 49 53 57 60 65 69 70 74 79 83 84 82 81 77 68 56 56 58 60 65 64 58 52 50 60 59 54 50 46 45 35 34 36 34 30 24 20
32 32 35 39 43 47 50 55 60 64 66 71 73 75 75 80 78 76 71 62 51 48 53 50 52 58 63 61 56 47 38 51 58 56 54 47 41 38 35 35 35 32 26 23
31 34 38 43 50 55 60 65 70 73 75 79 78 75 70 65 64 60 52 46 45 48 50 52 53 53 54 54 52 45 37 37 50 57 51 50 50 43 38 38 36 35 30 26
Wind_Direction
212 221 221 223 224 223 227 221 211 238 241 247 248 248 255 267 277 285 289 291 292 296 303 301 301 296 302 304 300 293 287 282 279 278 278 279 279 279 280 278 278 277 277 278
201 207 210 214 220 218 209 217 211 226 235 236 236 246 255 264 274 285 289 289 289 293 300 303 306 301 301 298 296 295 294 292 288 285 283 283 282 280 279 279 280 280 280 279
223 217 203 222 230 228 228 235 222 221 233 247 254 261 271 280 286 290 289 288 284 284 292 299 308 305 297 296 295 292 291 293 295 294 291 288 286 284 284 284 285 285 284 282
253 267 264 250 241 244 249 256 253 240 236 241 252 259 263 269 275 281 286 286 289 295 295 305 308 307 294 296 300 297 295 295 296 295 293 291 288 286 285 286 285 286 287 286
243 267 270 260 251 256 264 267 264 258 249 244 244 253 263 265 268 268 270 279 293 301 295 302 306 307 300 295 298 298 298 299 298 295 293 292 291 289 288 288 287 286 287 288
252 296 312 309 292 284 292 287 272 271 265 257 251 253 257 268 274 280 287 296 301 303 304 307 309 308 306 307 308 303 298 295 293 291 288 286 286 287 288 287 286 285 284 286
321 285 300 308 286 296 298 311 320 302 272 271 273 270 262 266 269 280 289 298 304 310 312 312 310 310 311 310 309 309 309 309 304 296 291 288 285 283 283 284 285 285 285 286
357 316 314 312 282 284 293 313 323 299 279 266 265 268 283 281 282 292 299 302 305 308 309 313 318 322 326 325 327 327 323 318 311 305 299 296 293 289 287 285 285 284 284 287
0 328 304 304 302 288 297 321 333 323 304 266 257 274 284 290 298 303 301 300 305 314 323 326 325 327 330 329 329 331 332 330 326 319 311 306 303 298 293 291 290 289 287 286
337 327 297 301 303 302 286 285 303 306 309 285 277 286 290 297 304 309 317 320 324 326 325 320 322 326 325 323 321 327 332 332 332 327 319 315 308 302 297 294 294 294 293 290
328 336 306 305 306 317 320 302 307 308 308 308 308 324 297 297 302 307 314 317 318 318 317 318 323 323 321 319 315 318 319 323 326 324 323 324 317 305 297 293 292 293 293 289
318 331 319 301 308 316 321 310 304 303 304 311 309 311 297 298 299 304 311 315 317 316 316 314 312 310 308 306 305 309 313 315 314 318 321 324 322 313 304 299 295 291 290 290
315 316 317 306 304 300 299 301 302 302 300 301 303 309 294 296 306 306 307 309 307 307 305 303 304 307 307 305 304 308 311 310 308 313 318 323 323 319 310 303 300 296 291 293
305 308 311 305 297 292 292 292 290 285 283 283 285 286 286 298 304 300 300 301 299 298 299 302 305 305 304 304 305 305 305 305 305 309 315 320 322 317 313 306 303 304 299 290
312 308 306 304 295 292 294 290 284 281 281 279 281 281 285 291 296 298 299 301 301 299 298 300 301 300 300 298 299 301 302 301 300 302 308 315 319 316 309 306 305 308 307 298
324 319 317 312 302 300 294 287 285 285 284 283 284 284 292 298 298 298 298 296 294 292 293 295 297 297 298 296 296 299 300 300 299 296 301 308 312 313 307 305 307 311 311 306
324 320 318 314 305 303 295 295 295 294 293 290 290 292 292 291 291 289 288 291 291 293 295 297 300 298 297 295 295 296 297 297 296 293 294 302 306 308 304 299 304 307 303 297
317 315 316 315 311 313 308 309 307 304 301 300 300 299 298 297 294 290 287 288 291 295 295 296 298 294 293 290 289 293 289 288 286 286 288 293 295 297 293 291 293 297 292 289
320 320 319 317 314 313 310 310 306 302 300 302 302 298 293 289 288 283 278 283 291 293 292 291 294 293 290 289 286 286 286 280 274 273 278 282 283 287 286 283 287 286 282 284
316 316 316 316 314 314 315 313 309 307 306 303 299 297 292 289 287 284 279 282 290 294 293 294 295 290 287 291 289 283 279 273 266 261 266 270 273 275 277 274 276 278 279 276
314 315 315 314 313 313 312 309 306 301 300 294 295 295 293 295 294 292 287 287 292 294 294 295 295 292 291 292 290 286 279 266 257 254 260 263 258 261 267 268 265 266 269 265
313 312 312 312 308 306 303 300 295 291 294 293 295 295 295 294 292 291 291 292 294 296 296 296 295 295 296 294 288 280 270 257 247 246 249 248 245 249 251 254 256 259 257 254
309 312 310 308 306 306 306 302 300 300 300 300 298 297 294 293 293 293 293 294 296 297 296 294 292 294 298 301 299 287 263 247 239 234 235 235 232 237 245 247 244 246 249 249
316 315 311 310 311 310 308 307 305 303 301 298 295 293 291 291 291 294 294 295 296 294 291 292 294 297 299 300 304 304 271 245 240 227 223 230 234 227 241 243 237 235 238 241
325 319 317 317 318 315 311 310 309 308 304 300 299 295 292 296 299 299 299 297 294 292 295 296 295 299 300 302 304 307 285 249 239 225 225 223 219 216 228 235 226 223 230 236
327 326 325 323 322 319 318 318 315 311 307 307 308 307 306 306 306 305 304 304 304 300 298 300 299 297 296 297 299 299 296 265 236 222 225 224 226 215 223 229 220 217 222 228
Height
5878 5880 5881 5883 5885 5887 5889 5891 5892 5891 5890 5891 5890 5891 5890 5887 5886 5886 5886 5886 5886 5885 5883 5879 5875 5872 5868 5863 5860 5860 5860 5858 5855 5853 5851 5849 5846 5842 5840 5839 5837 5835 5832 5831
5876 5878 5879 5880 5881 5883 5884 5885 5886 5887 5886 5886 5887 5887 5885 5885 5882 5879 5878 5877 5877 5875 5873 5870 5868 5865 5861 5857 5853 5850 5849 5848 5846 5844 5842 5839 5836 5833 5831 5828 5827 5825 5824 5821
5875 5876 5877 5878 5879 5880 5880 5879 5881 5882 5882 5881 5882 5880 5878 5877 5875 5873 5872 5870 5869 5867 5865 5864 5861 5857 5854 5850 5847 5844 5842 5839 5835 5832 5830 5829 5827 5825 5822 5820 5818 5816 5814 5812
5872 5873 5875 5875 5876 5874 5875 5875 5877 5878 5879 5878 5876 5873 5872 5871 5870 5869 5867 5863 5862 5863 5860 5858 5855 5851 5847 5843 5840 5837 5834 5832 5829 5825 5821 5819 5818 5815 5813 5812 5809 5806 5803 5801
5870 5869 5870 5871 5870 5870 5870 5871 5870 5870 5871 5871 5871 5868 5869 5866 5864 5862 5860 5858 5858 5856 5854 5852 5850 5846 5841 5837 5834 5829 5825 5822 5819 5816 5812 5809 5807 5805 5803 5801 5799 5798 5795 5792
5868 5869 5869 5869 5868 5867 5867 5866 5865 5864 5863 5863 5863 5863 5863 5859 5858 5856 5855 5853 5852 5850 5848 5845 5843 5838 5834 5830 5826 5822 5817 5813 5810 5806 5803 5800 5798 5795 5793 5792 5790 5789 5787 5784
5868 5868 5868 5867 5865 5865 5864 5863 5862 5860 5858 5858 5857 5856 5857 5854 5852 5852 5850 5848 5845 5842 5839 5836 5834 5831 5828 5822 5818 5814 5810 5806 5801 5797 5793 5790 5787 5784 5783 5781 5780 5778 5776 5773
5866 5866 5867 5865 5864 5863 5860 5860 5861 5859 5856 5854 5851 5849 5850 5849 5847 5845 5842 5840 5838 5837 5833 5828 5823 5820 5817 5813 5809 5805 5802 5798 5794 5789 5784 5779 5776 5773 5770 5768 5766 5765 5764 5761
5866 5866 5864 5862 5862 5860 5858 5857 5857 5856 5853 5851 5848 5846 5846 5843 5841 5839 5838 5836 5834 5830 5825 5821 5817 5814 5810 5805 5801 5799 5795 5791 5786 5781 5775 5770 5766 5762 5759 5756 5754 5752 5751 5749
5864 5864 5861 5859 5859 5858 5857 5857 5855 5853 5851 5849 5848 5844 5841 5838 5837 5835 5832 5829 5826 5822 5820 5816 5813 5809 5806 5803 5798 5794 5789 5785 5780 5774 5768 5764 5758 5752 5748 5746 5743 5740 5738 5736
5863 5863 5861 5858 5856 5856 5856 5855 5853 5852 5850 5847 5845 5846 5839 5836 5834 5831 5827 5824 5820 5816 5813 5809 5806 5803 5800 5797 5792 5788 5784 5778 5773 5768 5762 5756 5751 5745 5740 5737 5734 5731 5727 5724
5861 5861 5859 5857 5855 5853 5852 5850 5849 5848 5846 5842 5841 5845 5837 5832 5828 5825 5822 5819 5815 5810 5806 5802 5799 5796 5793 5789 5783 5779 5776 5770 5766 5761 5755 5749 5744 5738 5733 5729 5726 5723 5718 5715
5860 5859 5859 5856 5856 5853 5849 5847 5844 5842 5840 5839 5836 5838 5828 5826 5825 5821 5817 5813 5808 5803 5798 5793 5790 5786 5782 5778 5774 5769 5766 5762 5758 5753 5747 5741 5736 5730 5726 5723 5720 5716 5712 5708
5859 5856 5856 5855 5851 5847 5846 5844 5841 5838 5835 5833 5832 5829 5821 5820 5818 5813 5809 5805 5800 5796 5791 5785 5780 5776 5771 5766 5763 5760 5757 5753 5749 5743 5738 5733 5728 5724 5719 5716 5713 5710 5705 5701
5856 5855 5852 5850 5846 5843 5841 5839 5836 5833 5830 5826 5824 5820 5815 5813 5810 5805 5801 5796 5791 5786 5779 5774 5768 5765 5761 5757 5753 5751 5748 5744 5740 5736 5732 5727 5722 5718 5713 5710 5707 5703 5698 5695
5853 5851 5849 5846 5841 5839 5836 5833 5830 5827 5824 5821 5817 5813 5810 5805 5801 5796 5790 5784 5779 5773 5767 5762 5758 5754 5750 5746 5743 5741 5739 5734 5731 5727 5723 5720 5714 5711 5707 5704 5701 5698 5694 5690
5849 5846 5844 5842 5837 5833 5828 5827 5823 5820 5817 5814 5810 5806 5801 5795 5791 5784 5777 5770 5764 5758 5752 5746 5744 5740 5735 5731 5728 5727 5725 5722 5718 5717 5714 5712 5707 5703 5701 5698 5695 5693 5690 5687
5846 5842 5838 5834 5831 5828 5823 5818 5816 5811 5807 5803 5799 5794 5788 5781 5775 5770 5763 5753 5745 5739 5735 5730 5727 5723 5718 5715 5712 5712 5711 5710 5707 5706 5704 5701 5699 5696 5694 5692 5689 5687 5685 5682
5837 5833 5828 5825 5822 5821 5818 5812 5807 5802 5797 5793 5788 5781 5775 5768 5761 5754 5746 5737 5731 5725 5717 5711 5707 5704 5700 5697 5696 5693 5693 5695 5695 5693 5692 5691 5689 5687 5686 5683 5683 5679 5678 5677
5830 5826 5823 5817 5813 5810 5810 5804 5796 5790 5783 5780 5772 5764 5757 5749 5742 5737 5730 5720 5710 5705 5698 5690 5683 5679 5676 5672 5671 5671 5670 5673 5676 5677 5677 5679 5679 5677 5676 5675 5677 5673 5670 5671
5825 5822 5818 5812 5806 5801 5798 5792 5786 5779 5773 5766 5756 5748 5739 5732 5723 5716 5709 5698 5687 5680 5672 5665 5659 5654 5651 5648 5644 5641 5642 5645 5651 5657 5659 5663 5667 5666 5665 5665 5668 5667 5663 5664
5817 5813 5809 5803 5798 5794 5788 5781 5777 5768 5759 5750 5742 5733 5723 5713 5703 5693 5684 5674 5667 5659 5651 5642 5634 5629 5626 5621 5616 5613 5613 5617 5624 5633 5639 5645 5649 5651 5652 5654 5658 5661 5657 5656
5810 5805 5799 5793 5788 5780 5775 5768 5759 5752 5743 5734 5723 5712 5700 5689 5680 5671 5662 5653 5645 5637 5628 5621 5613 5608 5603 5596 5587 5580 5580 5588 5597 5608 5618 5625 5631 5633 5639 5643 5647 5651 5651 5650
5804 5797 5789 5782 5776 5769 5761 5753 5745 5735 5726 5715 5703 5690 5678 5667 5657 5648 5639 5630 5621 5614 5608 5601 5594 5587 5582 5574 5565 5556 5553 5560 5572 5585 5596 5607 5614 5619 5626 5631 5637 5642 5644 5644
5797 5790 5782 5774 5766 5757 5748 5738 5727 5716 5706 5694 5681 5669 5657 5647 5635 5624 5616 5607 5600 5597 5593 5586 5578 5572 5565 5559 5551 5543 5536 5536 5546 5562 5573 5585 5597 5604 5612 5619 5626 5632 5636 5638
5788 5781 5774 5765 5754 5744 5732 5720 5708 5696 5685 5672 5659 5646 5634 5624 5611 5601 5594 5587 5583 5579 5574 5568 5561 5554 5546 5540 5537 5532 5527 5523 5527 5543 5556 5569 5580 5590 5599 5607 5615 5622 5627 5631